Regional Weather Roundup
Issued by NWS

Home | Current Version | Previous Version | Text Only | Print | Product List | Glossary Off
Versions: 1 2 3 4 5 6 7 8 9 10 11 12 13 14 15 16 17 18 19 20 21 22 23 24 25 26 27 28 29 30 31 32 33 34 35 36 37 38 39 40 41 42 43 44 45 46 47 48 49 50

673
ASUS43 KFSD 222102
RWRSD

WEATHER ROUNDUP FOR SOUTH DAKOTA
NATIONAL WEATHER SERVICE SIOUX FALLS SD
300 PM CST SUN JAN 22 2017

NOTE: "FAIR" INDICATES FEW OR NO CLOUDS BELOW 12,000 FEET WITH NO
SIGNIFICANT WEATHER AND/OR OBSTRUCTIONS TO VISIBILITY.


SDZ001>005-009-010-012>017-222200-
NORTHWEST AND NORTH CENTRAL SOUTH DAKOTA

CITY           SKY/WX    TMP DP  RH WIND       PRES   REMARKS
BUFFALO          N/A     31  25  78 NW9       29.75R WCI  23
FAITH            N/A     25  23  92 W6        29.82S WCI  18
MOBRIDGE       CLOUDY    30  25  81 W7        29.80R WCI  23
$$

SDZ012>016-024>037-041>051-057-063-072>074-222200-
SOUTHWEST AND SOUTH CENTRAL SOUTH DAKOTA

CITY           SKY/WX    TMP DP  RH WIND       PRES   REMARKS
RAPID CTY ARPT SUNNY     39  25  57 S7        29.83S
PIERRE         CLOUDY    29  24  82 NW16      29.86R WCI  17
CUSTER         SUNNY     37  13  37 W13G18    29.80S
ELLSWORTH AFB  SUNNY     43  23  45 W3        29.82S
PHILIP         SUNNY     35  28  75 N7        29.85F WCI  29
PINE RIDGE     SUNNY     39  27  62 W9        29.85F
SPEARFISH      FAIR      41  21  45 W12       29.82R
WINNER         FAIR      39  27  62 NW17      29.85R
$$

SDZ004>011-016>023-039-040-222200-
NORTHEAST SOUTH DAKOTA

CITY           SKY/WX    TMP DP  RH WIND       PRES   REMARKS
ABERDEEN       CLOUDY    29  24  82 W12       29.80R WCI  19
WATERTOWN      CLOUDY    29  27  92 NW12      29.77R FOG     WCI  19
BROOKINGS      CLOUDY    28  27  96 NW9       29.78S FOG     WCI  19
SISSETON         N/A     33  31  92 N15       29.76R WCI  23
$$

SDZ017-020-022-023-036>040-048>070-222200-
SOUTHEAST SOUTH DAKOTA

CITY           SKY/WX    TMP DP  RH WIND       PRES   REMARKS
SIOUX FALLS    CLOUDY    29  28  96 W12       29.81R FOG     WCI  19
HURON          CLOUDY    30  28  92 W13       29.83R WCI  20
CHAMBERLAIN    SUNNY     34  27  77 W13G18    29.86R WCI  25
MITCHELL       CLOUDY    32  28  85 NW16      29.85S WCI  21
YANKTON        SUNNY     37  28  70 NW10      29.81S
$$

ABBREVIATIONS USED IN REMARKS
   TC - TEMPERATURE IN CELSIUS
  WCI - WIND CHILL INDEX
   HX - HEAT INDEX
  VSB - VISIBILITY





USA.gov is the U.S. government's official web portal to all federal, state and local government web resources and services.